Weather in Samut Sakhon

Thailand     13°32′56″N   100°15′58″E
temp.,
°C
wind,
m/s
gust,
m/s
humid.,
%
clouds,
%
prec.,
mm/h
press.,
hPa
HPBL,
m
8 may, sat
sat801:00+26wsw228361 5.5 1010129
04:00+26wnw338492 0.1 1009137
07:00+27nnw2281100 0.1 1010130
10:00+30nnw116851 0.0 1011476
13:00+33sse225789 0.0 10091001
16:00+32sse4459100 0.0 1007596
19:00+30s567158 0.0 1007344
22:00+29ssw5774100 0.4 1010397
9 may, sun
sun901:00+29sw347490 0.4 1008353
04:00+28sw347794 0.0 1007286
07:00+28wsw227587 0.0 1009271
10:00+31s116020 0.0 1010690
13:00+32se42574 0.0 1008931
16:00+32se54600 0.0 1006578
19:00+30sse67715 0.0 1006425
22:00+30s78743 0.0 1007580
10 may, mon
mon1001:00+29s68760 0.1 1006545
04:00+29s687582 0.0 1005530
07:00+29ssw4574100 0.0 1008489
10:00+32s336290 0.0 1009771
13:00+33sse545899 0.0 10071036
16:00+32se656127 0.0 1004558
19:00+30s78724 0.0 1005612
22:00+30s68755 0.6 1007580
11 may, tue
tue1101:00+30s797525 0.6 1006687
04:00+29s687669 0.2 1006666
07:00+30ssw567520 0.4 1008562
10:00+32s336294 0.0 1009780
13:00+33se54605 0.0 10071107
16:00+32se66650 0.0 1004590
19:00+30s78731 0.0 1005532
22:00+30s79750 0.0 1007578
12 may, wed
wed1201:00+30s79765 0.0 1005652
04:00+29s578045 3.7 1005279
07:00+29ssw45775 4.1 1007386
10:00+32s33635 0.0 1008750
13:00+32se54618 0.0 1006880
16:00+32se656614 0.0 1004668
19:00+30s897480 0.0 1005682
22:00+30s6874100 0.0 1006548